Weather History for KRWI - October, 2011

Change the Weather History Date:

Monday, October 10, 2011

  Actual Average Record
Temperature  
Mean Temperature 66 °F -  
Max Temperature 77 °F 75 °F 90 °F (1959)
Min Temperature 54 °F 50 °F 35 °F (1981)
Growing Degree Days 16 (Base 50)    
Moisture  
Dew Point 54 °F    
Average Humidity 69    
Maximum Humidity 90    
Minimum Humidity 51    
Precipitation  
Precipitation 0.00 in - - ()
Sea Level Pressure  
Sea Level Pressure 30.19 in    
Wind  
Wind Speed 6 mph (NE)    
Max Wind Speed 10 mph    
Max Gust Speed -    
Visibility 10 miles    
Events      
Averages and records for this station are not official NWS values.
T = Trace of Precipitation, MM = Missing Value Source: NWS Daily Summary

Daily Weather History Graph

Daily Weather History Graph

Search for Another Location

Airport or City:

Trip Planner

Search our weather history database for the weather conditions in past years. The results will help you decide how hot, cold, wet, or windy it might be!

Date:

Astronomy

Oct. 10, 2011 Rise Set
Actual Time 7:13 AM EDT 6:42 PM EDT
Civil Twilight 6:48 AM EDT 7:08 PM EDT
Nautical Twilight 6:18 AM EDT 7:38 PM EDT
Astronomical Twilight 5:48 AM EDT 8:07 PM EDT
Moon 5:45 PM EDT (10/10) 5:54 AM EDT (10/10)
Length of Visible Light 12h 20m
Length of Day
11h 29m
Waxing Gibbous, 98% of the Moon is Illuminated
Oct 10
Waxing Gibbous
Oct 11
Full
Oct 19
Last Quarter
Oct 26
New
Nov 2
First Quarter

Hourly Weather History & Observations

Time (EDT) Temp. Dew Point Humidity Pressure Visibility Wind Dir Wind Speed Gust Speed Precip Events Conditions
12:53 AM 57.0 °F 52.0 °F 83% 30.31 in 10.0 mi NNE 4.6 mph - N/A   Clear
1:53 AM 55.9 °F 53.1 °F 90% 30.29 in 10.0 mi NE 5.8 mph - N/A   Clear
2:53 AM 57.0 °F 50.0 °F 77% 30.26 in 10.0 mi NNE 6.9 mph - N/A   Clear
3:53 AM 54.0 °F 50.0 °F 86% 30.25 in 10.0 mi NNE 5.8 mph - N/A   Clear
4:53 AM 54.0 °F 48.9 °F 83% 30.25 in 10.0 mi NNE 5.8 mph - N/A   Clear
5:53 AM 55.0 °F 48.0 °F 77% 30.24 in 10.0 mi NNE 4.6 mph - N/A   Clear
6:53 AM 55.0 °F 50.0 °F 83% 30.25 in 10.0 mi Calm Calm - N/A   Clear
7:53 AM 55.9 °F 52.0 °F 87% 30.25 in 10.0 mi NNE 5.8 mph - N/A   Clear
9:53 AM 64.9 °F 52.0 °F 63% 30.25 in 10.0 mi NE 6.9 mph - N/A   Clear
10:53 AM 66.9 °F 53.1 °F 61% 30.24 in 10.0 mi NNE 10.4 mph - N/A   Clear
11:53 AM 70.0 °F 54.0 °F 57% 30.23 in 10.0 mi Variable 3.5 mph - N/A   Clear
12:53 PM 73.0 °F 54.0 °F 51% 30.21 in 10.0 mi ENE 5.8 mph - N/A   Clear
1:53 PM 75.0 °F 57.0 °F 53% 30.17 in 10.0 mi NNE 8.1 mph - N/A   Clear
2:53 PM 75.0 °F 57.9 °F 55% 30.16 in 10.0 mi ENE 5.8 mph - N/A   Clear
3:53 PM 77.0 °F 59.0 °F 54% 30.15 in 10.0 mi NNE 9.2 mph - N/A   Clear
4:53 PM 73.0 °F 57.0 °F 57% 30.14 in 10.0 mi ENE 4.6 mph - N/A   Clear
5:53 PM 71.1 °F 57.0 °F 61% 30.13 in 10.0 mi NE 3.5 mph - N/A   Clear
6:53 PM 69.1 °F 55.9 °F 63% 30.12 in 10.0 mi NNE 6.9 mph - N/A   Clear
7:53 PM 68.0 °F 55.4 °F 64% 30.11 in 10.0 mi NNE 6.9 mph - N/A   Clear
8:53 PM 68.0 °F 55.9 °F 65% 30.11 in 10.0 mi NNE 5.8 mph - N/A   Clear
9:53 PM 68.0 °F 55.0 °F 63% 30.11 in 10.0 mi NE 5.8 mph - N/A   Mostly Cloudy
10:53 PM 66.0 °F 55.9 °F 70% 30.11 in 10.0 mi NE 5.8 mph - N/A   Clear
11:53 PM 64.9 °F 57.0 °F 75% 30.10 in 10.0 mi NE 4.6 mph - N/A   Clear